User: anonymous   Login
Location: Ferma
(41.9500°N, 44.5167°E)
Time: 07:49:34
(UTC+00:00)
Language:

Cosmos 1269 Rocket - Orbit

View from above orbital plane
View from above orbital plane
View from above satellite
View from above satellite

Ground track
Ground track

The orbit data is extracted from the following two-line orbital elements,

1 12443U 81041B   22023.92362692  .00000054  00000-0  28346-4 0  9992
2 12443  74.0562 329.6004 0004207 356.0668   4.0451 14.34787396128929
Epoch (UTC): 23 January 2022 22:10:01
Eccentricity: 0.0004207
inclination: 74.0562°
perigee height: 773 km
apogee height: 779 km
right ascension of ascending node: 329.6004°
argument of perigee: 356.0668°
revolutions per day: 14.34787396
mean anomaly at epoch: 4.0451°
orbit number at epoch: 12892

The dashed part of the orbit path shows where the satellite is in the earth's shadow,  

DLR